STARLINK-1366, 45569

Orbit data source: Space-Track

STARLINK-1366, 45569 is a payload satellite owned by SpaceX/Seattle (US) in LEO that was launched on Wed, 22 Apr 2020 UTC via an FALCON 9 launch vehicle from the Air Force Eastern Test Range (AFETR). Payload-class satellites include a variety of spacecraft equipped with specific instruments for various scientific and technological missions. These include communications satellites like Starlink; space stations such as the ISS; scientific satellites like the Hubble; Earth observation satellites from companies like Planet Labs, Umbra, and HawkEye 360; GPS; miniature CubeSats for education and research; and military/defense satellites.

Loading next visibility...
Identifier
45569, 2020-025AQ
Orbit
LEO
Country
Flag of USUS
Related business
Manufacturer
SpaceX/Seattle
Mission
Partially operational Commercial Communications
Bus & Motor
STARLINK, Unknown motor
Mass
260 kg wet, ~248 kg dry
Launch date (UTC)
2020-04-22 (6 years ago)
Launch vehicle
FALCON 9
Launch site
Air Force Eastern Test Range (AFETR)
Object type
Payload
Rocket body
Debris
Shape & HBR
Box + 1 Pan, 10.1 m
Radar Cross Section
13.562 m², Large (>1 m²)

Expand to show TLE details & history
Last TLE update: 7 hours ago

TLE from 7 hours ago
0 STARLINK-1366
1 45569U 20025AQ  26128.33335648  .00290473  43542-4  79381-3 0  9990
2 45569  53.0337  97.4870 0002307  49.2867 233.9718 15.93621803  5922
Epoch: 2026-05-08T08:00Z
TLE epoch observation values (Epoch: 2026-05-08T08:00:01.999Z)
Latitude
-51.22369°
Longitude
42.62816°
Altitude
310.753 km
Speed
7.721 km/s
True Right ascension
01h 55m 12s
True Declination
-51° 02' 40"
Sunlit
Object was in daylight at epoch
Visualization orbit readout
Latitude
Unknown
Longitude
Unknown
Altitude
Unknown
Speed
Unknown
Apparent Right ascension
Unknown
Apparent Declination
Unknown
Sunlit
N/A
Visualization observer readout
Local Sidereal Time
22:47:38
Azimuth
Unknown
Elevation
Unknown
Doppler factor
Unknown
Orbital elements
Apogee altitude
293.98 km
Perigee altitude
290.903 km
Semi-major axis
6,670.579 km
Eccentricity
0.00023
Inclination
53.0337°
RAAN
97.487°
Arg. of periapsis
49.2867°
True anomaly
233.95042°
Mean anomaly
233.9718°
Eccentric anomaly
233.96111°
Mean motion
3.9838 °/min
Orbital period
90.37 mins
BSTAR
0.00079381
Loading maneuver chart data...
Computing Atmospheric mass density...

Documentation

Showing up to 5 results
|